Time,TemperatureF,DewpointF,PressureIn,WindDirection,WindDirectionDegrees,WindSpeedMPH,WindSpeedGustMPH,Humidity,HourlyPrecipIn,Conditions,Clouds,dailyrainin,SoftwareType,DateUTC
2013-07-22 00:01:00,71.3,70.7,29.98,SW,224,0.0,0.0,98,0.00,,BKN150,0.20,VWS V14.01,2013-07-22 04:01:00,
2013-07-22 00:06:00,71.3,70.7,29.98,SW,224,0.0,0.0,98,0.00,,BKN150,0.00,VWS V14.01,2013-07-22 04:06:00,
2013-07-22 00:11:00,71.3,70.7,29.98,SW,224,0.0,0.0,98,0.00,,BKN150,0.00,VWS V14.01,2013-07-22 04:11:00,
2013-07-22 00:16:00,71.3,70.7,29.98,SW,224,0.0,0.0,98,0.00,,BKN150,0.00,VWS V14.01,2013-07-22 04:16:00,
2013-07-22 00:21:00,71.2,70.6,29.98,SW,224,0.0,0.0,98,0.00,,BKN150,0.00,VWS V14.01,2013-07-22 04:21:00,
2013-07-22 00:26:00,71.3,70.7,29.98,SW,224,0.0,0.0,98,0.00,,BKN150,0.00,VWS V14.01,2013-07-22 04:26:00,
2013-07-22 00:31:00,71.2,70.6,29.98,SW,223,0.0,0.0,98,0.00,,BKN150,0.00,VWS V14.01,2013-07-22 04:31:00,
2013-07-22 00:36:00,71.1,70.5,29.98,SW,223,0.0,0.0,98,0.00,,BKN150,0.00,VWS V14.01,2013-07-22 04:36:00,
2013-07-22 00:41:00,71.1,70.5,29.98,SW,224,0.0,0.0,98,0.00,,BKN150,0.00,VWS V14.01,2013-07-22 04:41:00,
2013-07-22 00:46:00,71.1,70.5,29.98,SW,224,0.0,0.0,98,0.00,,BKN150,0.00,VWS V14.01,2013-07-22 04:46:00,
2013-07-22 00:51:00,71.0,70.4,29.97,SW,224,0.0,0.0,98,0.00,,BKN150,0.00,VWS V14.01,2013-07-22 04:51:00,
2013-07-22 00:56:00,71.0,70.4,29.98,SW,224,0.0,0.0,98,0.00,,BKN150,0.00,VWS V14.01,2013-07-22 04:56:00,
2013-07-22 01:01:00,71.1,70.5,29.98,SW,223,0.0,0.0,98,0.00,,BKN150,0.00,VWS V14.01,2013-07-22 05:01:00,
2013-07-22 01:06:00,71.1,70.5,29.98,South,173,0.0,1.0,98,0.00,,BKN150,0.00,VWS V14.01,2013-07-22 05:06:00,
2013-07-22 01:11:00,71.1,70.5,29.98,SSW,206,0.0,2.0,98,0.00,,BKN150,0.00,VWS V14.01,2013-07-22 05:11:00,
2013-07-22 01:16:00,71.1,70.5,29.98,SSW,205,0.0,1.0,98,0.00,,BKN150,0.00,VWS V14.01,2013-07-22 05:16:00,
2013-07-22 01:21:00,71.1,70.5,29.98,SSW,206,0.0,1.0,98,0.00,,BKN150,0.00,VWS V14.01,2013-07-22 05:21:00,
2013-07-22 01:26:00,71.0,70.4,29.98,SSW,205,0.0,0.0,98,0.00,,BKN150,0.00,VWS V14.01,2013-07-22 05:26:00,
2013-07-22 01:31:00,70.9,70.3,29.97,SSW,205,0.0,0.0,98,0.00,,BKN150,0.00,VWS V14.01,2013-07-22 05:31:00,
2013-07-22 01:36:00,70.9,70.3,29.97,SSW,205,0.0,0.0,98,0.00,,BKN150,0.00,VWS V14.01,2013-07-22 05:36:00,
2013-07-22 01:41:00,70.8,70.2,29.97,SSW,206,0.0,0.0,98,0.00,,BKN150,0.00,VWS V14.01,2013-07-22 05:41:00,
2013-07-22 01:46:00,70.7,70.1,29.97,SSW,205,0.0,0.0,98,0.00,,BKN150,0.00,VWS V14.01,2013-07-22 05:46:00,
2013-07-22 01:51:00,70.7,70.1,29.97,SSW,206,0.0,0.0,98,0.00,,BKN150,0.00,VWS V14.01,2013-07-22 05:51:00,
2013-07-22 01:56:00,70.7,70.1,29.97,SSW,207,0.0,1.0,98,0.00,,BKN150,0.00,VWS V14.01,2013-07-22 05:56:00,
2013-07-22 02:01:00,70.7,70.4,29.96,SSW,201,0.0,1.0,99,0.00,,BKN150,0.00,VWS V14.01,2013-07-22 06:01:00,
2013-07-22 02:06:00,70.8,70.5,29.96,SW,219,1.0,1.0,99,0.00,,BKN150,0.00,VWS V14.01,2013-07-22 06:06:00,
2013-07-22 02:11:00,70.7,70.4,29.96,SW,229,0.0,3.0,99,0.00,,BKN150,0.00,VWS V14.01,2013-07-22 06:11:00,
2013-07-22 02:16:00,70.8,70.5,29.95,SSW,198,0.0,0.0,99,0.00,,BKN150,0.00,VWS V14.01,2013-07-22 06:16:00,
2013-07-22 02:21:00,70.8,70.5,29.95,SSW,198,0.0,0.0,99,0.00,,BKN150,0.00,VWS V14.01,2013-07-22 06:21:00,
2013-07-22 02:26:00,70.8,70.5,29.95,SSW,195,1.0,2.0,99,0.00,,BKN150,0.00,VWS V14.01,2013-07-22 06:26:00,
2013-07-22 02:31:00,70.9,70.6,29.95,South,191,1.0,2.0,99,0.00,,BKN150,0.00,VWS V14.01,2013-07-22 06:31:00,
2013-07-22 02:36:00,70.9,70.6,29.95,SSW,194,0.0,0.0,99,0.00,,BKN150,0.00,VWS V14.01,2013-07-22 06:36:00,
2013-07-22 02:41:00,70.9,70.6,29.94,SSW,194,0.0,0.0,99,0.00,,BKN150,0.00,VWS V14.01,2013-07-22 06:41:00,
2013-07-22 02:46:00,70.9,70.6,29.94,SSE,159,0.0,1.0,99,0.00,,BKN150,0.00,VWS V14.01,2013-07-22 06:46:00,
2013-07-22 02:51:00,70.9,70.6,29.94,South,181,0.0,1.0,99,0.00,,BKN150,0.00,VWS V14.01,2013-07-22 06:51:00,
2013-07-22 02:56:00,70.9,70.6,29.94,South,191,0.0,1.0,99,0.00,,BKN150,0.00,VWS V14.01,2013-07-22 06:56:00,
2013-07-22 03:01:00,70.9,70.6,29.94,South,170,0.0,1.0,99,0.00,,BKN150,0.00,VWS V14.01,2013-07-22 07:01:00,
2013-07-22 03:06:00,71.0,70.7,29.94,SSE,158,0.0,1.0,99,0.00,,BKN150,0.00,VWS V14.01,2013-07-22 07:06:00,
2013-07-22 03:11:00,70.9,70.6,29.94,WSW,242,0.0,2.0,99,0.00,,BKN150,0.00,VWS V14.01,2013-07-22 07:11:00,
2013-07-22 03:16:00,70.6,70.0,29.94,WSW,241,0.0,0.0,98,0.00,,BKN150,0.00,VWS V14.01,2013-07-22 07:16:00,
2013-07-22 03:21:00,70.5,69.9,29.94,WSW,242,0.0,0.0,98,0.00,,BKN150,0.00,VWS V14.01,2013-07-22 07:21:00,
2013-07-22 03:26:00,70.5,69.9,29.94,WSW,242,0.0,0.0,98,0.00,,BKN150,0.00,VWS V14.01,2013-07-22 07:26:00,
2013-07-22 03:31:00,70.5,69.9,29.94,WSW,242,0.0,0.0,98,0.00,,BKN150,0.00,VWS V14.01,2013-07-22 07:31:00,
2013-07-22 03:36:00,70.5,69.9,29.94,WSW,242,0.0,0.0,98,0.00,,BKN150,0.00,VWS V14.01,2013-07-22 07:36:00,
2013-07-22 03:41:00,70.5,69.9,29.94,WSW,242,0.0,0.0,98,0.00,,BKN150,0.00,VWS V14.01,2013-07-22 07:41:00,
2013-07-22 03:46:00,70.5,69.9,29.94,WSW,242,0.0,0.0,98,0.00,,BKN150,0.00,VWS V14.01,2013-07-22 07:46:00,
2013-07-22 03:51:00,70.5,69.9,29.94,WSW,242,0.0,0.0,98,0.00,,BKN150,0.00,VWS V14.01,2013-07-22 07:51:00,
2013-07-22 03:56:00,70.5,69.9,29.94,WSW,242,0.0,0.0,98,0.00,,BKN150,0.00,VWS V14.01,2013-07-22 07:56:00,
2013-07-22 04:01:00,70.5,69.9,29.94,WSW,242,0.0,0.0,98,0.00,,BKN150,0.00,VWS V14.01,2013-07-22 08:01:00,
2013-07-22 04:06:00,70.5,69.9,29.94,WSW,242,0.0,0.0,98,0.00,,BKN150,0.00,VWS V14.01,2013-07-22 08:06:00,
2013-07-22 04:11:00,70.5,69.9,29.94,WSW,242,0.0,0.0,98,0.00,,BKN150,0.00,VWS V14.01,2013-07-22 08:11:00,
2013-07-22 04:16:00,70.5,69.9,29.94,WSW,242,0.0,0.0,98,0.00,,BKN150,0.00,VWS V14.01,2013-07-22 08:16:00,
2013-07-22 04:21:00,70.5,69.9,29.94,WSW,242,0.0,0.0,98,0.00,,BKN150,0.00,VWS V14.01,2013-07-22 08:21:00,
2013-07-22 04:26:00,70.5,69.9,29.94,WSW,242,0.0,0.0,98,0.00,,BKN150,0.00,VWS V14.01,2013-07-22 08:26:00,
2013-07-22 04:31:00,70.5,69.9,29.94,WSW,242,0.0,0.0,98,0.00,,BKN150,0.00,VWS V14.01,2013-07-22 08:31:00,
2013-07-22 04:36:00,70.5,69.9,29.94,WSW,242,0.0,0.0,98,0.00,,BKN150,0.00,VWS V14.01,2013-07-22 08:36:00,
2013-07-22 04:41:00,70.5,69.9,29.94,WSW,242,0.0,0.0,98,0.00,,BKN150,0.00,VWS V14.01,2013-07-22 08:41:00,
2013-07-22 04:46:00,70.5,69.9,29.94,WSW,242,0.0,0.0,98,0.00,,BKN150,0.00,VWS V14.01,2013-07-22 08:46:00,
2013-07-22 04:51:00,70.5,69.9,29.94,WSW,242,0.0,0.0,98,0.00,,BKN150,0.00,VWS V14.01,2013-07-22 08:51:00,
2013-07-22 04:56:00,70.5,69.9,29.94,WSW,242,0.0,0.0,98,0.00,,BKN150,0.00,VWS V14.01,2013-07-22 08:56:00,
2013-07-22 05:01:00,70.5,69.9,29.94,WSW,242,0.0,0.0,98,0.00,,BKN150,0.00,VWS V14.01,2013-07-22 09:01:00,
2013-07-22 05:06:00,70.5,69.9,29.94,WSW,242,0.0,0.0,98,0.00,,BKN150,0.00,VWS V14.01,2013-07-22 09:06:00,
2013-07-22 05:11:00,70.5,69.9,29.94,WSW,242,0.0,0.0,98,0.00,,BKN150,0.00,VWS V14.01,2013-07-22 09:11:00,
2013-07-22 05:16:00,70.5,69.9,29.94,WSW,242,0.0,0.0,98,0.00,,BKN150,0.00,VWS V14.01,2013-07-22 09:16:00,
2013-07-22 05:21:00,70.5,69.9,29.94,WSW,242,0.0,0.0,98,0.00,,BKN150,0.00,VWS V14.01,2013-07-22 09:21:00,
2013-07-22 05:26:00,70.5,69.9,29.94,WSW,242,0.0,0.0,98,0.00,,BKN150,0.00,VWS V14.01,2013-07-22 09:26:00,
2013-07-22 05:31:00,70.5,69.9,29.94,WSW,242,0.0,0.0,98,0.00,,BKN150,0.00,VWS V14.01,2013-07-22 09:31:00,
2013-07-22 05:36:00,70.5,69.9,29.94,WSW,242,0.0,0.0,98,0.00,,BKN150,0.00,VWS V14.01,2013-07-22 09:36:00,
2013-07-22 05:41:00,70.5,69.9,29.94,WSW,242,0.0,0.0,98,0.00,,BKN150,0.00,VWS V14.01,2013-07-22 09:41:00,
2013-07-22 05:46:00,70.5,69.9,29.94,WSW,242,0.0,0.0,98,0.00,,BKN150,0.00,VWS V14.01,2013-07-22 09:46:00,
2013-07-22 05:51:00,70.5,69.9,29.94,WSW,242,0.0,0.0,98,0.00,,BKN150,0.00,VWS V14.01,2013-07-22 09:51:00,
2013-07-22 05:56:00,70.5,69.9,29.95,WSW,242,0.0,0.0,98,0.00,,BKN150,0.00,VWS V14.01,2013-07-22 09:56:00,
2013-07-22 06:01:00,70.5,69.9,29.95,WSW,242,0.0,0.0,98,0.00,,BKN150,0.00,VWS V14.01,2013-07-22 10:01:00,
2013-07-22 06:06:00,70.5,69.9,29.95,WSW,242,0.0,0.0,98,0.00,,BKN150,0.00,VWS V14.01,2013-07-22 10:06:00,
2013-07-22 06:11:00,70.5,69.9,29.95,WSW,242,0.0,0.0,98,0.00,,BKN150,0.00,VWS V14.01,2013-07-22 10:11:00,
2013-07-22 06:16:00,70.5,69.9,29.95,WSW,242,0.0,0.0,98,0.00,,BKN150,0.00,VWS V14.01,2013-07-22 10:16:00,
2013-07-22 06:21:00,70.5,69.9,29.95,WSW,242,0.0,0.0,98,0.00,,BKN150,0.00,VWS V14.01,2013-07-22 10:21:00,
2013-07-22 06:26:00,70.5,69.9,29.95,WSW,242,0.0,0.0,98,0.00,,BKN150,0.00,VWS V14.01,2013-07-22 10:26:00,
2013-07-22 06:31:00,70.5,69.9,29.96,WSW,242,0.0,0.0,98,0.00,,BKN150,0.00,VWS V14.01,2013-07-22 10:31:00,
2013-07-22 06:37:00,70.5,69.9,29.96,WSW,242,0.0,0.0,98,0.00,,BKN150,0.00,VWS V14.01,2013-07-22 10:37:00,
2013-07-22 06:42:00,70.5,69.9,29.96,WSW,242,0.0,0.0,98,0.00,,BKN150,0.00,VWS V14.01,2013-07-22 10:42:00,
2013-07-22 06:47:00,70.5,69.9,29.96,WSW,242,0.0,0.0,98,0.00,,BKN150,0.00,VWS V14.01,2013-07-22 10:47:00,
2013-07-22 06:51:00,70.5,69.9,29.97,WSW,242,0.0,0.0,98,0.00,,BKN150,0.00,VWS V14.01,2013-07-22 10:51:00,
2013-07-22 06:56:00,70.5,69.9,29.97,WSW,242,0.0,0.0,98,0.00,,BKN150,0.00,VWS V14.01,2013-07-22 10:56:00,
2013-07-22 07:02:00,70.5,69.9,29.97,WSW,242,0.0,0.0,98,0.00,,OVC005,0.00,VWS V14.01,2013-07-22 11:02:00,
2013-07-22 07:07:00,70.5,69.9,29.97,WSW,242,0.0,0.0,98,0.00,,OVC005,0.00,VWS V14.01,2013-07-22 11:07:00,
2013-07-22 07:12:00,70.5,69.9,29.97,WSW,242,0.0,0.0,98,0.00,,OVC005,0.00,VWS V14.01,2013-07-22 11:12:00,
2013-07-22 07:17:00,70.5,69.9,29.97,WSW,242,0.0,0.0,98,0.00,,OVC005,0.00,VWS V14.01,2013-07-22 11:17:00,
2013-07-22 07:22:00,70.5,69.9,29.97,WSW,242,0.0,0.0,98,0.00,,OVC005,0.00,VWS V14.01,2013-07-22 11:22:00,
2013-07-22 07:27:00,70.5,69.9,29.97,WSW,242,0.0,0.0,98,0.00,,OVC005,0.00,VWS V14.01,2013-07-22 11:27:00,
2013-07-22 07:32:00,70.5,69.9,29.97,WSW,242,0.0,0.0,98,0.00,,OVC005,0.00,VWS V14.01,2013-07-22 11:32:00,
2013-07-22 07:37:00,70.5,69.9,29.98,WSW,242,0.0,0.0,98,0.00,,OVC005,0.00,VWS V14.01,2013-07-22 11:37:00,
2013-07-22 07:42:00,70.5,69.9,29.98,WSW,242,0.0,0.0,98,0.00,,OVC005,0.00,VWS V14.01,2013-07-22 11:42:00,
2013-07-22 07:47:00,70.5,69.9,29.98,WSW,242,0.0,0.0,98,0.00,,OVC005,0.00,VWS V14.01,2013-07-22 11:47:00,
2013-07-22 07:52:00,70.5,69.9,29.98,WSW,242,0.0,0.0,98,0.00,,OVC005,0.00,VWS V14.01,2013-07-22 11:52:00,
2013-07-22 07:57:00,70.5,69.9,29.98,WSW,242,0.0,0.0,98,0.00,,OVC005,0.00,VWS V14.01,2013-07-22 11:57:00,
2013-07-22 08:02:00,70.5,69.9,29.99,WSW,242,0.0,0.0,98,0.00,,,0.00,VWS V14.01,2013-07-22 12:02:00,
2013-07-22 08:07:00,70.5,69.9,29.99,WSW,242,0.0,0.0,98,0.00,,,0.00,VWS V14.01,2013-07-22 12:07:00,
2013-07-22 08:12:00,70.5,69.9,29.99,WSW,242,0.0,0.0,98,0.00,,,0.00,VWS V14.01,2013-07-22 12:12:00,
2013-07-22 08:17:00,70.5,69.9,29.99,WSW,242,0.0,0.0,98,0.00,,,0.00,VWS V14.01,2013-07-22 12:17:00,
2013-07-22 08:22:00,70.6,70.3,29.99,WSW,242,0.0,0.0,99,0.00,,,0.00,VWS V14.01,2013-07-22 12:22:00,
2013-07-22 08:27:00,70.7,70.4,29.99,SW,223,0.0,1.0,99,0.00,,,0.00,VWS V14.01,2013-07-22 12:27:00,
2013-07-22 08:32:00,70.7,70.4,29.99,SW,224,0.0,0.0,99,0.00,,,0.00,VWS V14.01,2013-07-22 12:32:00,
2013-07-22 08:37:00,70.9,70.6,29.99,SW,224,0.0,0.0,99,0.00,,,0.00,VWS V14.01,2013-07-22 12:37:00,
2013-07-22 08:42:00,70.8,70.5,29.99,SW,224,0.0,0.0,99,0.00,,,0.00,VWS V14.01,2013-07-22 12:42:00,
2013-07-22 08:47:00,70.9,70.6,29.99,SW,224,0.0,0.0,99,0.00,,,0.00,VWS V14.01,2013-07-22 12:47:00,
2013-07-22 08:52:00,70.9,70.6,30.00,SW,223,0.0,0.0,99,0.00,,,0.00,VWS V14.01,2013-07-22 12:52:00,
2013-07-22 08:57:00,70.9,70.6,30.00,SW,224,0.0,0.0,99,0.00,,,0.00,VWS V14.01,2013-07-22 12:57:00,
2013-07-22 09:02:00,70.9,70.6,29.99,SW,223,0.0,0.0,99,0.00,,,0.00,VWS V14.01,2013-07-22 13:02:00,
2013-07-22 09:07:00,71.0,70.7,30.00,SW,223,0.0,1.0,99,0.00,,,0.00,VWS V14.01,2013-07-22 13:07:00,
2013-07-22 09:12:00,71.1,70.8,29.99,SW,224,0.0,0.0,99,0.00,,,0.00,VWS V14.01,2013-07-22 13:12:00,
2013-07-22 09:17:00,71.2,70.9,30.00,SW,224,0.0,0.0,99,0.00,,,0.00,VWS V14.01,2013-07-22 13:17:00,
2013-07-22 09:22:00,71.3,71.0,29.99,SSW,195,0.0,1.0,99,0.00,,,0.00,VWS V14.01,2013-07-22 13:22:00,
2013-07-22 09:27:00,71.6,71.3,29.99,SSW,195,0.0,0.0,99,0.00,,,0.00,VWS V14.01,2013-07-22 13:27:00,
2013-07-22 09:32:00,71.7,71.4,29.99,SSW,211,0.0,1.0,99,0.00,,,0.00,VWS V14.01,2013-07-22 13:32:00,
2013-07-22 09:37:00,71.7,71.1,29.99,SSW,211,0.0,0.0,98,0.00,,,0.00,VWS V14.01,2013-07-22 13:37:00,
2013-07-22 09:42:00,71.8,71.5,29.99,SSW,211,0.0,1.0,99,0.00,,,0.00,VWS V14.01,2013-07-22 13:42:00,
2013-07-22 09:47:00,71.9,71.6,29.99,South,172,0.0,2.0,99,0.00,,,0.00,VWS V14.01,2013-07-22 13:47:00,
2013-07-22 09:52:00,72.2,71.9,29.98,South,172,0.0,0.0,99,0.00,,,0.00,VWS V14.01,2013-07-22 13:52:00,
2013-07-22 09:57:00,72.2,71.6,29.98,SSE,167,0.0,0.0,98,0.00,,,0.00,VWS V14.01,2013-07-22 13:57:00,
2013-07-22 10:02:00,72.5,72.2,29.98,SSE,167,0.0,0.0,99,0.00,,,0.00,VWS V14.01,2013-07-22 14:02:00,
2013-07-22 10:07:00,72.6,72.0,29.98,SSW,203,0.0,0.0,98,0.00,,,0.00,VWS V14.01,2013-07-22 14:07:00,
2013-07-22 10:12:00,72.6,71.7,29.98,South,174,0.0,0.0,97,0.00,,,0.00,VWS V14.01,2013-07-22 14:12:00,
2013-07-22 10:17:00,72.9,72.3,29.98,South,175,0.0,0.0,98,0.00,,,0.00,VWS V14.01,2013-07-22 14:17:00,
2013-07-22 10:22:00,73.2,72.6,29.98,South,174,0.0,0.0,98,0.00,,,0.00,VWS V14.01,2013-07-22 14:22:00,
2013-07-22 10:27:00,73.5,72.6,29.98,South,181,0.0,0.0,97,0.00,,,0.00,VWS V14.01,2013-07-22 14:27:00,
2013-07-22 10:32:00,73.8,72.6,29.98,South,173,0.0,0.0,96,0.00,,,0.00,VWS V14.01,2013-07-22 14:32:00,
2013-07-22 10:37:00,74.2,72.7,29.98,SSE,159,0.0,0.0,95,0.00,,,0.00,VWS V14.01,2013-07-22 14:37:00,
2013-07-22 10:42:00,74.9,73.4,29.98,South,170,0.0,0.0,95,0.00,,,0.00,VWS V14.01,2013-07-22 14:42:00,
2013-07-22 10:47:00,75.3,72.8,29.98,SSW,198,0.0,0.0,92,0.00,,,0.00,VWS V14.01,2013-07-22 14:47:00,
2013-07-22 10:52:00,75.6,73.1,29.98,SW,222,1.0,1.0,92,0.00,,,0.00,VWS V14.01,2013-07-22 14:52:00,
2013-07-22 10:57:00,75.6,72.8,29.98,SW,228,0.0,0.0,91,0.00,,,0.00,VWS V14.01,2013-07-22 14:57:00,
2013-07-22 11:02:00,75.9,73.4,29.98,SSE,167,0.0,1.0,92,0.00,,BKN020,0.00,VWS V14.01,2013-07-22 15:02:00,
2013-07-22 11:07:00,76.3,73.5,29.98,SW,224,0.0,0.0,91,0.00,,BKN020,0.00,VWS V14.01,2013-07-22 15:07:00,
2013-07-22 11:12:00,76.6,73.4,29.98,SW,226,0.0,2.0,90,0.00,,BKN020,0.00,VWS V14.01,2013-07-22 15:12:00,
2013-07-22 11:17:00,76.8,73.3,29.98,NW,304,1.0,1.0,89,0.00,,BKN020,0.00,VWS V14.01,2013-07-22 15:17:00,
2013-07-22 11:22:00,77.1,73.3,29.98,WNW,302,0.0,1.0,88,0.00,,BKN020,0.00,VWS V14.01,2013-07-22 15:22:00,
2013-07-22 11:27:00,77.5,73.7,29.98,WSW,245,1.0,1.0,88,0.00,,BKN020,0.00,VWS V14.01,2013-07-22 15:27:00,
2013-07-22 11:32:00,78.1,73.6,29.98,SW,232,0.0,1.0,86,0.00,,BKN020,0.00,VWS V14.01,2013-07-22 15:32:00,
2013-07-22 11:37:00,78.7,74.5,29.98,WSW,243,1.0,2.0,87,0.00,,BKN020,0.00,VWS V14.01,2013-07-22 15:37:00,
2013-07-22 11:42:00,79.3,74.8,29.98,SW,219,3.0,3.0,86,0.00,,BKN020,0.00,VWS V14.01,2013-07-22 15:42:00,
2013-07-22 11:47:00,79.9,75.0,29.98,SW,233,2.0,2.0,85,0.00,,BKN020,0.00,VWS V14.01,2013-07-22 15:47:00,
2013-07-22 11:52:00,80.5,74.5,29.98,SSW,207,0.0,3.0,82,0.00,,BKN020,0.00,VWS V14.01,2013-07-22 15:52:00,
2013-07-22 11:57:00,81.4,74.6,29.98,SW,222,2.0,2.0,80,0.00,,BKN020,0.00,VWS V14.01,2013-07-22 15:57:00,
2013-07-22 12:02:00,81.5,73.6,29.98,West,259,1.0,3.0,77,0.00,,OVC040,0.00,VWS V14.01,2013-07-22 16:02:00,
2013-07-22 12:07:00,81.0,73.5,29.98,WNW,291,0.0,0.0,78,0.00,,OVC040,0.00,VWS V14.01,2013-07-22 16:07:00,
2013-07-22 12:12:00,80.8,73.7,29.98,SW,236,1.0,1.0,79,0.00,,OVC040,0.00,VWS V14.01,2013-07-22 16:12:00,
2013-07-22 12:17:00,81.4,74.3,29.98,SW,222,1.0,1.0,79,0.00,,OVC040,0.00,VWS V14.01,2013-07-22 16:17:00,
2013-07-22 12:22:00,81.6,73.7,29.98,SW,226,3.0,3.0,77,0.00,,OVC040,0.00,VWS V14.01,2013-07-22 16:22:00,
2013-07-22 12:27:00,81.5,73.6,29.98,South,190,2.0,3.0,77,0.00,,OVC040,0.00,VWS V14.01,2013-07-22 16:27:00,
2013-07-22 12:32:00,81.8,74.3,29.98,SSW,203,0.0,3.0,78,0.00,,OVC040,0.00,VWS V14.01,2013-07-22 16:32:00,
2013-07-22 12:37:00,81.9,73.6,29.97,SW,217,0.0,1.0,76,0.00,,OVC040,0.00,VWS V14.01,2013-07-22 16:37:00,
2013-07-22 12:42:00,81.9,74.0,29.97,West,276,0.0,0.0,77,0.00,,OVC040,0.00,VWS V14.01,2013-07-22 16:42:00,
2013-07-22 12:47:00,82.3,75.1,29.97,WSW,240,1.0,1.0,79,0.00,,OVC040,0.00,VWS V14.01,2013-07-22 16:47:00,
2013-07-22 12:52:00,82.3,73.6,29.96,WSW,245,2.0,3.0,75,0.00,,OVC040,0.00,VWS V14.01,2013-07-22 16:52:00,
2013-07-22 12:57:00,82.5,73.8,29.96,SW,232,0.0,0.0,75,0.00,,OVC040,0.00,VWS V14.01,2013-07-22 16:57:00,
2013-07-22 13:02:00,82.9,75.3,29.96,SW,233,2.0,5.0,78,0.00,,OVC040,0.00,VWS V14.01,2013-07-22 17:02:00,
2013-07-22 13:07:00,83.1,74.0,29.96,SSW,210,2.0,3.0,74,0.00,,OVC040,0.00,VWS V14.01,2013-07-22 17:07:00,
2013-07-22 13:12:00,83.0,74.3,29.96,ESE,110,0.0,5.0,75,0.00,,OVC040,0.00,VWS V14.01,2013-07-22 17:12:00,
2013-07-22 13:17:00,83.1,74.0,29.95,WSW,250,1.0,2.0,74,0.00,,OVC040,0.00,VWS V14.01,2013-07-22 17:17:00,
2013-07-22 13:22:00,83.1,74.0,29.95,WSW,252,0.0,1.0,74,0.00,,OVC040,0.00,VWS V14.01,2013-07-22 17:22:00,
2013-07-22 13:27:00,83.5,74.3,29.95,SSW,204,1.0,1.0,74,0.00,,OVC040,0.00,VWS V14.01,2013-07-22 17:27:00,
2013-07-22 13:32:00,83.9,74.3,29.95,SE,124,0.0,0.0,73,0.00,,OVC040,0.00,VWS V14.01,2013-07-22 17:32:00,
2013-07-22 13:37:00,84.6,75.0,29.94,WSW,242,2.0,2.0,73,0.00,,OVC040,0.00,VWS V14.01,2013-07-22 17:37:00,
2013-07-22 13:42:00,85.0,75.0,29.94,SSW,210,1.0,1.0,72,0.00,,OVC040,0.00,VWS V14.01,2013-07-22 17:42:00,
2013-07-22 13:47:00,85.1,73.8,29.94,West,270,0.0,0.0,69,0.00,,OVC040,0.00,VWS V14.01,2013-07-22 17:47:00,
2013-07-22 13:52:00,84.7,73.4,29.94,WNW,286,0.0,0.0,69,0.00,,OVC040,0.00,VWS V14.01,2013-07-22 17:52:00,
2013-07-22 13:57:00,83.9,74.3,29.93,NNW,329,1.0,1.0,73,0.00,,OVC040,0.00,VWS V14.01,2013-07-22 17:57:00,
2013-07-22 14:02:00,82.8,73.7,29.93,WSW,242,1.0,2.0,74,0.00,,OVC040,0.00,VWS V14.01,2013-07-22 18:02:00,
2013-07-22 14:07:00,81.4,74.6,29.93,NE,35,0.0,1.0,80,0.01,,OVC040,0.01,VWS V14.01,2013-07-22 18:07:00,
2013-07-22 14:13:00,79.8,74.5,29.93,WSW,254,0.0,0.0,84,0.04,,OVC040,0.04,VWS V14.01,2013-07-22 18:13:00,
2013-07-22 14:18:00,78.5,74.3,29.92,SSW,193,0.0,0.0,87,0.04,,OVC040,0.04,VWS V14.01,2013-07-22 18:18:00,
2013-07-22 14:23:00,78.1,74.6,29.93,SSW,194,0.0,0.0,89,0.04,,OVC040,0.04,VWS V14.01,2013-07-22 18:23:00,
2013-07-22 14:28:00,77.9,74.7,29.92,NW,307,0.0,0.0,90,0.04,,OVC040,0.04,VWS V14.01,2013-07-22 18:28:00,
2013-07-22 14:34:00,77.8,75.0,29.92,WNW,298,0.0,0.0,91,0.04,,OVC040,0.04,VWS V14.01,2013-07-22 18:34:00,
2013-07-22 14:39:00,77.7,74.5,29.93,South,189,2.0,4.0,90,0.04,,OVC040,0.04,VWS V14.01,2013-07-22 18:39:00,
2013-07-22 14:44:00,77.1,73.9,29.93,SW,226,0.0,2.0,90,0.04,,OVC040,0.04,VWS V14.01,2013-07-22 18:44:00,
2013-07-22 14:49:00,77.4,73.6,29.92,SW,236,2.0,5.0,88,0.04,,OVC040,0.04,VWS V14.01,2013-07-22 18:49:00,
2013-07-22 14:54:00,78.3,74.8,29.92,SSW,200,0.0,1.0,89,0.04,,OVC040,0.04,VWS V14.01,2013-07-22 18:54:00,
2013-07-22 14:59:00,79.0,74.5,29.91,South,191,0.0,1.0,86,0.04,,OVC040,0.04,VWS V14.01,2013-07-22 18:59:00,
2013-07-22 15:05:00,79.0,74.8,29.92,WSW,242,0.0,1.0,87,0.04,,OVC040,0.04,VWS V14.01,2013-07-22 19:05:00,
2013-07-22 15:10:00,78.5,74.3,29.92,South,179,0.0,2.0,87,0.04,,OVC040,0.05,VWS V14.01,2013-07-22 19:10:00,
2013-07-22 15:15:00,77.9,74.1,29.91,SSE,149,0.0,2.0,88,0.01,,OVC040,0.05,VWS V14.01,2013-07-22 19:15:00,
2013-07-22 15:20:00,77.6,74.1,29.91,SSE,153,0.0,1.0,89,0.01,,OVC040,0.05,VWS V14.01,2013-07-22 19:20:00,
2013-07-22 15:25:00,77.5,74.3,29.91,SE,145,0.0,1.0,90,0.01,,OVC040,0.05,VWS V14.01,2013-07-22 19:25:00,
2013-07-22 15:30:00,77.9,75.4,29.90,SE,145,0.0,1.0,92,0.01,,OVC040,0.05,VWS V14.01,2013-07-22 19:30:00,
2013-07-22 15:35:00,78.4,75.6,29.90,NNW,330,0.0,2.0,91,0.01,,OVC040,0.05,VWS V14.01,2013-07-22 19:35:00,
2013-07-22 15:40:00,79.1,74.6,29.90,NE,37,0.0,1.0,86,0.01,,OVC040,0.05,VWS V14.01,2013-07-22 19:40:00,
2013-07-22 15:45:00,80.3,76.4,29.90,NE,37,0.0,0.0,88,0.01,,OVC040,0.05,VWS V14.01,2013-07-22 19:45:00,
2013-07-22 15:50:00,81.8,77.9,29.90,SW,235,0.0,1.0,88,0.01,,OVC040,0.05,VWS V14.01,2013-07-22 19:50:00,
2013-07-22 15:55:00,83.2,77.5,29.90,SW,235,2.0,2.0,83,0.01,,OVC040,0.05,VWS V14.01,2013-07-22 19:55:00,
2013-07-22 16:00:00,83.9,76.7,29.90,SW,214,0.0,0.0,79,0.01,,OVC040,0.05,VWS V14.01,2013-07-22 20:00:00,
2013-07-22 16:05:00,84.8,76.8,29.89,South,186,0.0,2.0,77,0.01,,OVC040,0.05,VWS V14.01,2013-07-22 20:05:00,
2013-07-22 16:10:00,85.3,77.7,29.89,SE,124,0.0,1.0,78,0.01,,OVC040,0.05,VWS V14.01,2013-07-22 20:10:00,
2013-07-22 16:15:00,84.3,76.7,29.88,NNE,32,0.0,3.0,78,0.00,,OVC040,0.05,VWS V14.01,2013-07-22 20:15:00,
2013-07-22 16:16:00,84.3,77.5,29.88,NNE,32,0.0,3.0,80,0.00,,OVC040,0.05,VWS V14.01,2013-07-22 20:16:00,
2013-07-22 16:17:00,84.2,77.4,29.88,NNE,30,1.0,3.0,80,0.00,,OVC040,0.05,VWS V14.01,2013-07-22 20:17:00,
2013-07-22 16:22:00,84.7,78.2,29.88,SSW,194,1.0,1.0,81,0.00,,OVC040,0.05,VWS V14.01,2013-07-22 20:22:00,
2013-07-22 16:27:00,84.9,78.0,29.88,WSW,237,1.0,1.0,80,0.00,,OVC040,0.05,VWS V14.01,2013-07-22 20:27:00,
2013-07-22 16:32:00,85.3,76.9,29.88,South,174,0.0,0.0,76,0.00,,OVC040,0.05,VWS V14.01,2013-07-22 20:32:00,
2013-07-22 16:37:00,85.7,76.1,29.87,SW,218,0.0,0.0,73,0.00,,OVC040,0.05,VWS V14.01,2013-07-22 20:37:00,
2013-07-22 16:42:00,86.5,76.8,29.87,ENE,68,1.0,1.0,73,0.00,,OVC040,0.05,VWS V14.01,2013-07-22 20:42:00,
2013-07-22 16:43:00,86.6,76.5,29.87,ENE,70,0.0,1.0,72,0.00,,OVC040,0.05,VWS V14.01,2013-07-22 20:43:00,
2013-07-22 16:48:00,87.0,77.7,29.87,SSW,198,0.0,0.0,74,0.00,,OVC040,0.05,VWS V14.01,2013-07-22 20:48:00,
2013-07-22 16:53:00,87.3,78.4,29.87,SSW,197,0.0,0.0,75,0.00,,OVC040,0.05,VWS V14.01,2013-07-22 20:53:00,
2013-07-22 16:58:00,87.4,77.3,29.87,SE,143,0.0,2.0,72,0.00,,OVC040,0.05,VWS V14.01,2013-07-22 20:58:00,
2013-07-22 17:03:00,86.9,76.4,29.86,South,181,3.0,3.0,71,0.00,,OVC040,0.05,VWS V14.01,2013-07-22 21:03:00,
2013-07-22 17:08:00,86.3,75.8,29.86,South,188,1.0,3.0,71,0.00,,OVC040,0.05,VWS V14.01,2013-07-22 21:08:00,
2013-07-22 17:13:00,86.3,77.4,29.86,SSW,208,1.0,1.0,75,0.00,,OVC040,0.05,VWS V14.01,2013-07-22 21:13:00,
2013-07-22 17:18:00,86.5,76.0,29.86,SW,224,1.0,1.0,71,0.00,,OVC040,0.05,VWS V14.01,2013-07-22 21:18:00,
2013-07-22 17:23:00,86.4,76.3,29.86,SW,228,1.0,2.0,72,0.00,,OVC040,0.05,VWS V14.01,2013-07-22 21:23:00,
2013-07-22 17:28:00,86.1,75.2,29.86,SW,225,4.0,4.0,70,0.00,,OVC040,0.05,VWS V14.01,2013-07-22 21:28:00,
2013-07-22 17:33:00,86.0,74.7,29.86,SW,232,2.0,3.0,69,0.00,,OVC040,0.05,VWS V14.01,2013-07-22 21:33:00,
2013-07-22 17:38:00,85.6,74.7,29.86,SE,136,1.0,4.0,70,0.00,,OVC040,0.05,VWS V14.01,2013-07-22 21:38:00,
2013-07-22 17:43:00,85.1,75.1,29.86,SSE,166,0.0,2.0,72,0.00,,OVC040,0.05,VWS V14.01,2013-07-22 21:43:00,
2013-07-22 17:48:00,84.6,75.0,29.85,SSW,211,0.0,3.0,73,0.00,,OVC040,0.05,VWS V14.01,2013-07-22 21:48:00,
2013-07-22 17:53:00,84.2,75.4,29.85,SW,214,0.0,1.0,75,0.00,,OVC040,0.05,VWS V14.01,2013-07-22 21:53:00,
2013-07-22 17:58:00,83.7,75.3,29.85,SSW,210,1.0,1.0,76,0.00,,OVC040,0.05,VWS V14.01,2013-07-22 21:58:00,
2013-07-22 18:03:00,83.4,75.4,29.85,SSW,201,1.0,1.0,77,0.00,,OVC040,0.05,VWS V14.01,2013-07-22 22:03:00,
2013-07-22 18:08:00,82.8,75.2,29.84,SW,221,0.0,1.0,78,0.00,,OVC040,0.05,VWS V14.01,2013-07-22 22:08:00,
2013-07-22 18:13:00,82.4,74.9,29.84,WSW,239,0.0,2.0,78,0.00,,OVC040,0.05,VWS V14.01,2013-07-22 22:13:00,
2013-07-22 18:18:00,82.7,75.2,29.84,SSE,153,1.0,3.0,78,0.00,,OVC040,0.05,VWS V14.01,2013-07-22 22:18:00,
2013-07-22 18:23:00,83.1,75.2,29.85,SW,226,0.0,2.0,77,0.00,,OVC040,0.05,VWS V14.01,2013-07-22 22:23:00,
2013-07-22 18:28:00,82.9,74.9,29.85,South,170,2.0,2.0,77,0.00,,OVC040,0.05,VWS V14.01,2013-07-22 22:28:00,
2013-07-22 18:33:00,82.7,75.2,29.85,SSE,160,1.0,2.0,78,0.00,,OVC040,0.05,VWS V14.01,2013-07-22 22:33:00,
2013-07-22 18:38:00,82.3,74.4,29.85,SW,225,2.0,2.0,77,0.00,,OVC040,0.05,VWS V14.01,2013-07-22 22:38:00,
2013-07-22 18:43:00,81.9,74.4,29.85,SSW,211,1.0,2.0,78,0.00,,OVC040,0.05,VWS V14.01,2013-07-22 22:43:00,
2013-07-22 18:48:00,81.6,74.8,29.85,SW,226,0.0,0.0,80,0.00,,OVC040,0.05,VWS V14.01,2013-07-22 22:48:00,
2013-07-22 18:53:00,81.4,74.3,29.85,SSW,205,1.0,3.0,79,0.00,,OVC040,0.05,VWS V14.01,2013-07-22 22:53:00,
2013-07-22 18:58:00,81.2,74.1,29.85,SW,224,2.0,2.0,79,0.00,,OVC040,0.05,VWS V14.01,2013-07-22 22:58:00,
2013-07-22 19:03:00,81.0,73.9,29.85,SW,218,1.0,2.0,79,0.00,,OVC040,0.05,VWS V14.01,2013-07-22 23:03:00,
2013-07-22 19:08:00,80.9,74.2,29.85,SW,219,0.0,4.0,80,0.00,,OVC040,0.05,VWS V14.01,2013-07-22 23:08:00,
2013-07-22 19:13:00,80.9,74.2,29.84,SW,221,7.0,7.0,80,0.00,,OVC040,0.05,VWS V14.01,2013-07-22 23:13:00,
2013-07-22 19:18:00,81.1,74.3,29.85,SW,218,2.0,2.0,80,0.00,,OVC040,0.05,VWS V14.01,2013-07-22 23:18:00,
2013-07-22 19:23:00,81.4,74.6,29.85,WSW,238,1.0,1.0,80,0.00,,OVC040,0.05,VWS V14.01,2013-07-22 23:23:00,
2013-07-22 19:28:00,81.5,74.4,29.86,SW,224,1.0,2.0,79,0.00,,OVC040,0.05,VWS V14.01,2013-07-22 23:28:00,
2013-07-22 19:33:00,81.5,74.7,29.86,South,190,0.0,1.0,80,0.00,,OVC040,0.05,VWS V14.01,2013-07-22 23:33:00,
2013-07-22 19:38:00,81.4,74.3,29.86,SW,215,0.0,1.0,79,0.00,,OVC040,0.05,VWS V14.01,2013-07-22 23:38:00,
2013-07-22 19:43:00,81.2,74.4,29.86,SW,221,0.0,4.0,80,0.00,,OVC040,0.05,VWS V14.01,2013-07-22 23:43:00,
2013-07-22 19:48:00,81.0,74.6,29.86,SSW,195,2.0,2.0,81,0.00,,OVC040,0.05,VWS V14.01,2013-07-22 23:48:00,
2013-07-22 19:53:00,80.5,73.8,29.87,SW,215,2.0,3.0,80,0.00,,OVC040,0.05,VWS V14.01,2013-07-22 23:53:00,
2013-07-22 19:58:00,80.2,73.8,29.87,SW,229,1.0,4.0,81,0.00,,OVC040,0.05,VWS V14.01,2013-07-22 23:58:00,
2013-07-22 20:03:00,80.0,73.7,29.87,SW,221,0.0,3.0,81,0.00,,OVC040,0.05,VWS V14.01,2013-07-23 00:03:00,
2013-07-22 20:08:00,79.7,73.7,29.87,SSW,200,1.0,3.0,82,0.00,,OVC040,0.05,VWS V14.01,2013-07-23 00:08:00,
2013-07-22 20:13:00,79.5,73.9,29.87,SW,229,1.0,1.0,83,0.00,,OVC040,0.05,VWS V14.01,2013-07-23 00:13:00,
2013-07-22 20:18:00,79.4,74.2,29.88,SW,226,1.0,2.0,84,0.00,,OVC040,0.05,VWS V14.01,2013-07-23 00:18:00,
2013-07-22 20:23:00,79.2,73.9,29.88,SW,217,0.0,3.0,84,0.00,,OVC040,0.05,VWS V14.01,2013-07-23 00:23:00,
2013-07-22 20:28:00,79.0,73.8,29.88,SW,226,1.0,4.0,84,0.00,,OVC040,0.05,VWS V14.01,2013-07-23 00:28:00,
2013-07-22 20:33:00,79.0,73.8,29.88,SW,219,3.0,3.0,84,0.00,,OVC040,0.05,VWS V14.01,2013-07-23 00:33:00,
2013-07-22 20:38:00,78.9,73.7,29.88,SE,130,1.0,3.0,84,0.00,,OVC040,0.05,VWS V14.01,2013-07-23 00:38:00,
2013-07-22 20:43:00,78.8,73.6,29.88,SW,226,0.0,3.0,84,0.00,,OVC040,0.05,VWS V14.01,2013-07-23 00:43:00,
2013-07-22 20:48:00,78.7,73.5,29.88,SSW,210,1.0,2.0,84,0.00,,OVC040,0.05,VWS V14.01,2013-07-23 00:48:00,
2013-07-22 20:53:00,78.8,73.6,29.88,SW,224,2.0,4.0,84,0.00,,OVC040,0.05,VWS V14.01,2013-07-23 00:53:00,
2013-07-22 20:58:00,78.8,73.6,29.88,SW,230,2.0,2.0,84,0.00,,OVC040,0.05,VWS V14.01,2013-07-23 00:58:00,
2013-07-22 21:03:00,78.7,73.5,29.88,SW,214,3.0,3.0,84,0.00,,OVC040,0.05,VWS V14.01,2013-07-23 01:03:00,
2013-07-22 21:08:00,78.6,73.4,29.88,South,179,3.0,5.0,84,0.00,,OVC040,0.05,VWS V14.01,2013-07-23 01:08:00,
2013-07-22 21:13:00,78.6,73.4,29.88,West,260,1.0,4.0,84,0.00,,OVC040,0.05,VWS V14.01,2013-07-23 01:13:00,
2013-07-22 21:18:00,78.4,73.2,29.89,South,173,2.0,4.0,84,0.00,,OVC040,0.05,VWS V14.01,2013-07-23 01:18:00,
2013-07-22 21:23:00,78.2,73.0,29.89,SW,228,2.0,3.0,84,0.00,,OVC040,0.05,VWS V14.01,2013-07-23 01:23:00,
2013-07-22 21:28:00,78.0,72.8,29.89,SSW,208,1.0,4.0,84,0.00,,OVC040,0.05,VWS V14.01,2013-07-23 01:28:00,
2013-07-22 21:33:00,77.8,72.9,29.89,SSE,150,0.0,3.0,85,0.00,,OVC040,0.05,VWS V14.01,2013-07-23 01:33:00,
2013-07-22 21:38:00,77.5,72.6,29.89,ESE,115,0.0,3.0,85,0.00,,OVC040,0.05,VWS V14.01,2013-07-23 01:38:00,
2013-07-22 21:43:00,77.3,72.4,29.89,SW,226,0.0,2.0,85,0.00,,OVC040,0.05,VWS V14.01,2013-07-23 01:43:00,
2013-07-22 21:48:00,77.0,72.5,29.89,SSE,150,1.0,2.0,86,0.00,,OVC040,0.05,VWS V14.01,2013-07-23 01:48:00,
2013-07-22 21:53:00,76.8,72.3,29.89,SW,221,0.0,1.0,86,0.00,,OVC040,0.05,VWS V14.01,2013-07-23 01:53:00,
2013-07-22 21:58:00,76.5,72.3,29.89,SW,226,0.0,2.0,87,0.00,,OVC040,0.05,VWS V14.01,2013-07-23 01:58:00,
2013-07-22 22:03:00,76.3,72.2,29.89,SW,229,1.0,1.0,87,0.00,,OVC040,0.05,VWS V14.01,2013-07-23 02:03:00,
2013-07-22 22:08:00,76.1,71.9,29.89,WSW,250,0.0,2.0,87,0.00,,OVC040,0.05,VWS V14.01,2013-07-23 02:08:00,
2013-07-22 22:13:00,76.0,72.2,29.89,SW,232,0.0,2.0,88,0.00,,OVC040,0.05,VWS V14.01,2013-07-23 02:13:00,
2013-07-22 22:18:00,75.9,72.1,29.89,SW,235,2.0,2.0,88,0.00,,OVC040,0.05,VWS V14.01,2013-07-23 02:18:00,
2013-07-22 22:23:00,75.8,72.0,29.89,SW,233,1.0,1.0,88,0.00,,OVC040,0.05,VWS V14.01,2013-07-23 02:23:00,
2013-07-22 22:28:00,75.7,71.9,29.89,SW,228,1.0,2.0,88,0.00,,OVC040,0.05,VWS V14.01,2013-07-23 02:28:00,
2013-07-22 22:33:00,75.5,71.7,29.90,SW,233,0.0,1.0,88,0.00,,OVC040,0.05,VWS V14.01,2013-07-23 02:33:00,
2013-07-22 22:38:00,75.5,71.7,29.90,WSW,246,0.0,1.0,88,0.00,,OVC040,0.05,VWS V14.01,2013-07-23 02:38:00,
2013-07-22 22:43:00,75.4,71.6,29.90,WSW,243,1.0,1.0,88,0.00,,OVC040,0.05,VWS V14.01,2013-07-23 02:43:00,
2013-07-22 22:48:00,75.3,71.5,29.90,WSW,248,1.0,1.0,88,0.00,,OVC040,0.05,VWS V14.01,2013-07-23 02:48:00,
2013-07-22 22:53:00,75.1,71.3,29.90,WSW,240,0.0,1.0,88,0.00,,OVC040,0.05,VWS V14.01,2013-07-23 02:53:00,
2013-07-22 22:58:00,75.0,71.2,29.90,SW,224,0.0,1.0,88,0.00,,OVC040,0.05,VWS V14.01,2013-07-23 02:58:00,
2013-07-22 23:03:00,74.9,71.1,29.90,WSW,239,1.0,1.0,88,0.00,,OVC040,0.05,VWS V14.01,2013-07-23 03:03:00,
2013-07-22 23:08:00,74.8,71.0,29.90,SW,229,0.0,1.0,88,0.00,,OVC040,0.05,VWS V14.01,2013-07-23 03:08:00,
2013-07-22 23:13:00,74.6,71.2,29.90,WSW,240,1.0,2.0,89,0.00,,OVC040,0.05,VWS V14.01,2013-07-23 03:13:00,
2013-07-22 23:18:00,74.6,71.2,29.90,WSW,249,1.0,2.0,89,0.00,,OVC040,0.05,VWS V14.01,2013-07-23 03:18:00,
2013-07-22 23:23:00,74.4,70.9,29.91,SW,236,1.0,1.0,89,0.00,,OVC040,0.05,VWS V14.01,2013-07-23 03:23:00,
2013-07-22 23:28:00,74.4,70.9,29.91,WSW,250,1.0,1.0,89,0.00,,OVC040,0.05,VWS V14.01,2013-07-23 03:28:00,
2013-07-22 23:33:00,74.4,70.9,29.91,WSW,257,0.0,1.0,89,0.00,,OVC040,0.05,VWS V14.01,2013-07-23 03:33:00,
2013-07-22 23:38:00,74.2,70.8,29.91,West,277,0.0,0.0,89,0.00,,OVC040,0.05,VWS V14.01,2013-07-23 03:38:00,
2013-07-22 23:43:00,74.1,70.7,29.91,West,259,0.0,0.0,89,0.00,,OVC040,0.05,VWS V14.01,2013-07-23 03:43:00,
2013-07-22 23:48:00,74.0,70.9,29.91,West,259,0.0,0.0,90,0.00,,OVC040,0.05,VWS V14.01,2013-07-23 03:48:00,
2013-07-22 23:53:00,73.8,70.7,29.90,West,260,1.0,1.0,90,0.00,,OVC040,0.05,VWS V14.01,2013-07-23 03:53:00,
2013-07-22 23:58:00,73.7,70.6,29.91,West,262,1.0,1.0,90,0.00,,OVC040,0.05,VWS V14.01,2013-07-23 03:58:00,